TimeCST,TemperatureF,Dew PointF,Humidity,Sea Level PressureIn,VisibilityMPH,Wind Direction,Wind SpeedMPH,Gust SpeedMPH,PrecipitationIn,Events,Conditions,WindDirDegrees,DateUTC
12:00 AM,61,57,81,29.89,,SSE,10.4,,,,,160,2013-07-11 06:00:00
12:00 AM,61.3,56.7,85,29.89,-9999.0,SSE,10.4,-,N/A,,Unknown,160,2013-07-11 06:00:00
1:00 AM,59.7,56.5,89,29.88,-9999.0,SSE,9.2,-,N/A,,Unknown,150,2013-07-11 07:00:00
2:00 AM,59.2,56.3,90,29.88,-9999.0,SSE,10.4,-,N/A,,Unknown,150,2013-07-11 08:00:00
3:00 AM,60.3,57.0,89,29.86,-9999.0,SSE,10.4,-,N/A,,Unknown,150,2013-07-11 09:00:00
4:00 AM,59.7,56.8,90,29.84,-9999.0,SE,9.2,-,N/A,,Unknown,140,2013-07-11 10:00:00
5:00 AM,59.9,57.2,91,29.81,-9999.0,SE,9.2,-,N/A,,Unknown,130,2013-07-11 11:00:00
6:00 AM,62,58,84,29.80,,SE,12.7,,,,,140,2013-07-11 12:00:00
6:00 AM,61.5,58.3,89,29.80,-9999.0,SE,12.7,-,N/A,,Unknown,140,2013-07-11 12:00:00
7:00 AM,64.8,60.1,85,29.78,-9999.0,SE,15.0,-,N/A,,Unknown,140,2013-07-11 13:00:00
8:00 AM,69.1,62.2,79,29.78,-9999.0,SSE,15.0,-,N/A,,Unknown,150,2013-07-11 14:00:00
9:00 AM,71.4,63.1,75,29.75,-9999.0,SSE,13.8,-,N/A,,Unknown,160,2013-07-11 15:00:00
10:00 AM,74.1,66.0,76,29.76,-9999.0,SE,10.4,-,N/A,,Unknown,130,2013-07-11 16:00:00
11:00 AM,77.5,65.8,67,29.71,-9999.0,SE,15.0,-,N/A,,Unknown,140,2013-07-11 17:00:00
12:00 PM,83,68,51,29.69,,SSE,18.4,,,,,150,2013-07-11 18:00:00
12:00 PM,82.6,67.8,61,29.69,-9999.0,SSE,18.4,25.3,N/A,,Unknown,150,2013-07-11 18:00:00
1:00 PM,84.6,67.8,57,29.66,-9999.0,SE,19.6,-,N/A,,Unknown,140,2013-07-11 19:00:00
2:00 PM,87.6,66.7,50,29.62,-9999.0,SE,21.9,-,N/A,,Unknown,140,2013-07-11 20:00:00
3:00 PM,88.7,64.0,44,29.61,-9999.0,SE,20.7,28.8,N/A,,Unknown,140,2013-07-11 21:00:00
4:00 PM,88.5,66.2,47,29.62,-9999.0,SSE,13.8,-,N/A,,Unknown,160,2013-07-11 22:00:00
5:00 PM,85.6,70.0,59,29.60,-9999.0,SE,10.4,-,N/A,,Unknown,140,2013-07-11 23:00:00
6:00 PM,85,71,53,29.59,,SE,9.2,,,,,140,2013-07-12 00:00:00
6:00 PM,84.6,70.5,63,29.59,-9999.0,SE,9.2,-,N/A,,Unknown,140,2013-07-12 00:00:00
7:00 PM,84.6,70.0,61,29.60,-9999.0,South,4.6,-,N/A,,Unknown,190,2013-07-12 01:00:00
8:00 PM,81.5,71.4,71,29.56,-9999.0,ENE,6.9,-,N/A,,Unknown,60,2013-07-12 02:00:00
9:00 PM,79.3,71.6,77,29.61,-9999.0,South,4.6,-,N/A,,Unknown,180,2013-07-12 03:00:00
10:00 PM,77.5,69.8,77,29.60,-9999.0,NW,3.5,-,N/A,,Unknown,310,2013-07-12 04:00:00
11:00 PM,82.9,54.9,38,29.61,-9999.0,West,5.8,-,N/A,,Unknown,260,2013-07-12 05:00:00